Zurück zum Katalog

COSMOS 894 DEB

AktivPO
NORAD 45506·DEBRIS·🇷🇺 Russia

Gestartet Feb 21, 1977 von Plesetsk Cosmodrome

Loading…

Nächste Überflüge (nächste 24 Stunden)

TLE

AktuellSource: Space-Track

Epoche: Sep 14, 2026, 07:17 UTC

1 45506U 77013C   26257.30377561  .00000565  00000-0  53169-3 0  9995
2 45506  82.9447  17.7105 0026465 270.9703  88.8424 13.79638866625293

Verfolge COSMOS 894 DEB in Echtzeit mit AllMySat

Download on the App Store